Find Starlink 11325

NORAD ID: 61538 Int'l Des: 2024-184 Owner: SPXS Country: US Constellation: starlink operational
別名: STARLINK-11325 [DTC] celestrak
LEOCIRCULAR

現在のビュー

3D地球を読み込み中...

About Starlink 11325

Starlink 11325 (NORAD 61538) is a starlink constellation satellite (v2 mini d2c) launched Oct 15, 2024 by SPXS of US. It operates in LEO, CIRCULAR orbit with a mass of 960.00 kg.

次回通過

Passes for default location (London). Set your location on the main map for personalized predictions.

高度履歴

Loading altitude history...

軌道要素

1 61538U 24184G 26262.70842220 .00000550 00000-0 93967-5 0 9994
2 61538 53.1586 359.5636 0001113 79.9036 280.2107 15.69711717110894
Epoch: Sep 19, 2026 • Age: 23 hours

現在のステータス

高度 365.5 km
遠地点 / 近地点 N/A
速度 7.70 km/s
衛星直下点 53.22°N, 163.94°W
打ち上げ日 Oct 15, 2024
運用期間 1.9 years
タイプ internet

技術仕様

分類 Payload
質量 960.00 kg
乾燥質量 910.00 kg
長さ 0.30 m
スパン 29.00 m
形状 ? Box + pan
製造者 SPXS
バスタイプ Starlink V2MD
フェーズステータス In Orbit
所有者/国 SPXS/US

Most Searched